Location: Unspecified
(0.0000°N, 0.0000°E)
Time: 10:23:15
(UTC+00:00)

HuskySat-1 - Visible Passes

Search period start: 23 October 2021 00:00
Search period end: 02 November 2021 00:00
Orbit: 446 x 458 km, 51.6° (Epoch: 22 October)

Date Brightness Start Highest point End Pass type
(mag) Time Alt. Az. Time Alt. Az. Time Alt. Az.
23 Oct ? 18:25:10 10° NNW 18:28:41 59° NE 18:32:13 10° SE visible
25 Oct ? 18:50:10 10° W 18:51:58 13° SW 18:53:48 10° SSW visible
26 Oct ? 04:53:41 10° S 04:56:12 18° SE 04:58:43 10° E visible
26 Oct ? 18:12:12 10° WNW 18:14:55 20° SW 18:17:38 10° S visible
27 Oct ? 04:17:43 10° SSE 04:19:08 12° SE 04:20:33 10° ESE visible
28 Oct ? 05:16:05 10° SW 05:19:24 38° NW 05:22:43 10° NNE visible
29 Oct ? 04:39:24 14° SW 04:42:21 65° NW 04:45:50 10° NNE visible
30 Oct ? 04:06:31 37° NE 04:06:31 37° NE 04:08:47 10° NE visible
